Weather History for EGLL - December, 2014

Change the Weather History Date:

Friday, December 26, 2014

  Actual Average (WUND) Record (WUND)
Temperature  
Mean Temperature 40 °F -  
Max Temperature 48 °F 45 °F - (-1)
Min Temperature 31 °F 35 °F - (-1)
Degree Days  
Heating Degree Days 26    
Moisture  
Dew Point 36 °F    
Average Humidity 91    
Maximum Humidity 100    
Minimum Humidity 76    
Precipitation  
Precipitation 0.16 in - - ()
Sea Level Pressure  
Sea Level Pressure 30.20 in    
Wind  
Wind Speed 5 mph ()    
Max Wind Speed 18 mph    
Max Gust Speed -    
Visibility 7.9 miles    
Events Rain    
Averages and records for this station are not official NWS values.
T = Trace of Precipitation, MM = Missing Value Source: Averaged Metar Reports

Daily Weather History Graph

Daily Weather History Graph

Search for Another Location

Airport or City:

Trip Planner

Search our weather history database for the weather conditions in past years. The results will help you decide how hot, cold, wet, or windy it might be!

Date:

Astronomy

Dec. 26, 2014 Rise Set
Actual Time 8:06 AM GMT 3:57 PM GMT
Civil Twilight 7:26 AM GMT 4:38 PM GMT
Nautical Twilight 6:43 AM GMT 5:21 PM GMT
Astronomical Twilight 6:02 AM GMT 6:02 PM GMT
Moon 10:36 AM GMT (12/26) 9:59 PM GMT (12/26)
Length of Visible Light 9h 11m
Length of Day
7h 51m
Waxing Crescent, 25% of the Moon is Illuminated
Dec 26
Waxing Crescent
Dec 28
First Quarter
Jan 5
Full
Jan 13
Last Quarter
Jan 20
New

Hourly Weather History & Observations

Time (GMT) Temp. Windchill Dew Point Humidity Pressure Visibility Wind Dir Wind Speed Gust Speed Precip Events Conditions
12:00 AM 36 °F - 32 °F 80% 30.51 in 14 mi West 6.9 mph - -  
12:20 AM 33.8 °F - 32.0 °F 93% 30.48 in - WNW 2.3 mph - N/A   Clear
12:50 AM 33.8 °F 28.6 °F 32.0 °F 93% 30.48 in - West 5.8 mph - N/A   Clear
1:00 AM 35 °F - 32 °F 83% 30.49 in 16 mi West 4.6 mph - -  
1:20 AM 33.8 °F 30.8 °F 32.0 °F 93% 30.48 in 6.2 mi WNW 3.5 mph - N/A   Unknown
1:50 AM 35.6 °F - 33.8 °F 93% 30.48 in 6.2 mi Calm Calm - N/A   Unknown
2:00 AM 34 °F - 31 °F 85% 30.49 in 12 mi West 2.3 mph - -  
2:20 AM 33.8 °F - 32.0 °F 93% 30.48 in 6.2 mi West 2.3 mph - N/A   Unknown
2:50 AM 32.0 °F 28.7 °F 30.2 °F 93% 30.48 in - NW 3.5 mph - N/A   Clear
3:00 AM 33 °F - 31 °F 92% 30.49 in 12 mi NW 3.5 mph - -  
3:20 AM 33.8 °F - 33.8 °F 100% 30.48 in - Variable 2.3 mph - N/A   Clear
3:50 AM 33.8 °F - 33.8 °F 100% 30.48 in - Calm Calm - N/A   Clear
4:00 AM 32 °F - 31 °F 94% 30.49 in 11 mi West 2.3 mph - -  
4:20 AM 32.0 °F - 32.0 °F 100% 30.48 in - SSW 2.3 mph - N/A   Clear
4:50 AM 33.8 °F - 32.0 °F 93% 30.48 in - Variable 2.3 mph - N/A   Clear
5:00 AM 33 °F - 31 °F 91% 30.48 in 9 mi SSW 1.2 mph - -  
5:20 AM 32.0 °F 28.7 °F 32.0 °F 100% 30.48 in - Variable 3.5 mph - N/A   Clear
5:50 AM 33.8 °F - 32.0 °F 93% 30.45 in - South 2.3 mph - N/A   Clear
6:00 AM 33 °F - 31 °F 90% 30.47 in 10 mi SW 3.5 mph - -  
6:20 AM 32.0 °F 27.5 °F 32.0 °F 100% 30.45 in - South 4.6 mph - N/A   Clear
6:50 AM 32.0 °F - 30.2 °F 93% 30.45 in - Variable 2.3 mph - N/A   Clear
7:00 AM 33 °F - 32 °F 92% 30.46 in 9 mi NE 1.2 mph - -   Partly Cloudy
7:20 AM 32.0 °F - 32.0 °F 100% 30.45 in - Variable 2.3 mph - N/A   Clear
7:50 AM 33.8 °F 29.6 °F 32.0 °F 93% 30.45 in - SW 4.6 mph - N/A   Clear
8:00 AM 34 °F - 33 °F 94% 30.45 in 11 mi SSW 2.3 mph - -   Partly Cloudy
8:20 AM 33.8 °F 30.8 °F 32.0 °F 93% 30.42 in - SSW 3.5 mph - N/A   Clear
8:50 AM 33.8 °F 29.6 °F 33.8 °F 100% 30.42 in - SW 4.6 mph - N/A   Clear
9:00 AM 34 °F - 32 °F 91% 30.44 in 12 mi SW 4.6 mph - -   Scattered Clouds
9:20 AM 33.8 °F 28.6 °F 33.8 °F 100% 30.42 in - SSW 5.8 mph - N/A   Clear
9:50 AM 35.6 °F 30.7 °F 33.8 °F 93% 30.42 in - SW 5.8 mph - N/A   Clear
10:00 AM 36 °F - 33 °F 85% 30.42 in 11 mi SSW 4.6 mph - -  
10:20 AM 35.6 °F 29.9 °F 33.8 °F 93% 30.42 in - SW 6.9 mph - N/A   Clear
10:50 AM 37.4 °F 32.8 °F 35.6 °F 93% 30.39 in - WSW 5.8 mph - N/A   Clear
11:00 AM 38 °F - 34 °F 80% 30.40 in 16 mi SW 3.5 mph - -   Scattered Clouds
11:20 AM 37.4 °F 32.8 °F 33.8 °F 87% 30.39 in - SSW 5.8 mph - N/A   Clear
11:50 AM 37.4 °F 33.8 °F 35.6 °F 93% 30.36 in - SSW 4.6 mph - N/A   Clear
12:00 PM 38 °F - 34 °F 81% 30.36 in 16 mi South 4.6 mph - -   Partly Cloudy
12:20 PM 37.4 °F 32.8 °F 35.6 °F 93% 30.33 in - SSW 5.8 mph - N/A   Clear
12:50 PM 39.2 °F 33.6 °F 35.6 °F 87% 30.30 in - South 8.1 mph - N/A   Clear
1:00 PM 39 °F - 35 °F 78% 30.30 in 11 mi South 6.9 mph - -   Partly Cloudy
1:20 PM 39.2 °F 34.2 °F 35.6 °F 87% 30.27 in - SSW 6.9 mph - N/A   Clear
1:50 PM 39.2 °F 35.0 °F 35.6 °F 87% 30.24 in 6.2 mi South 5.8 mph - N/A   Partly Cloudy
2:00 PM 40 °F - 35 °F 76% 30.26 in 13 mi South 6.9 mph - -   Partly Cloudy
2:20 PM 41.0 °F 36.4 °F 37.4 °F 87% 30.24 in 6.2 mi South 6.9 mph - N/A   Scattered Clouds
2:50 PM 41.0 °F 36.4 °F 37.4 °F 87% 30.21 in 6.2 mi South 6.9 mph - N/A Rain Light Rain
3:00 PM 41 °F - 36 °F 78% 30.22 in 8 mi South 6.9 mph - - Rain Light Rain Showers
3:20 PM 41.0 °F 37.1 °F 37.4 °F 87% 30.18 in 6.2 mi SSE 5.8 mph - N/A Rain Light Rain
3:50 PM 41.0 °F 36.4 °F 37.4 °F 87% 30.15 in 6.2 mi SSE 6.9 mph - N/A Rain Light Rain
4:00 PM 40 °F - 38 °F 88% 30.16 in 4 mi SSE 9.2 mph - - Rain Rain
4:20 PM 39.2 °F 33.0 °F 39.2 °F 100% 30.12 in 5.6 mi SE 9.2 mph - N/A Rain Rain
4:50 PM 39.2 °F 33.0 °F 39.2 °F 100% 30.09 in 5.6 mi SE 9.2 mph - N/A Rain Rain
5:00 PM 40 °F - 38 °F 91% 30.09 in 4 mi SE 10.4 mph - - Rain Rain
5:20 PM 41.0 °F 34.7 °F 39.2 °F 93% 30.04 in 5.6 mi SSE 10.4 mph - N/A Rain Rain
5:50 PM 41.0 °F 33.5 °F 39.2 °F 93% 29.98 in 5.0 mi SSE 13.8 mph - N/A Rain Rain
6:00 PM 41 °F - 39 °F 88% 29.99 in 2 mi SE 15.0 mph - - Rain Rain
6:20 PM 41.0 °F 33.1 °F 39.2 °F 93% 29.92 in 6.2 mi SSE 15.0 mph - N/A Rain Light Rain
6:50 PM 42.8 °F 34.8 °F 41.0 °F 93% 29.86 in 5.6 mi SSE 17.3 mph - N/A Rain Rain
7:00 PM 42 °F - 40 °F 91% 29.88 in 3 mi SE 17.3 mph - - Rain Rain
7:20 PM 42.8 °F 35.1 °F 41.0 °F 93% 29.83 in 5.0 mi SSE 16.1 mph - N/A Rain Rain
7:50 PM 44.6 °F 38.8 °F 42.8 °F 93% 29.77 in 6.2 mi SSE 11.5 mph - N/A Rain Light Rain
8:00 PM 44 °F - 42 °F 91% 29.78 in 12 mi SSE 15.0 mph - - Rain Rain
8:20 PM 44.6 °F 38.4 °F 42.8 °F 93% 29.74 in 6.2 mi SSE 12.7 mph - N/A Rain Light Rain
8:50 PM 46.4 °F 40.7 °F 44.6 °F 93% 29.68 in 6.2 mi South 12.7 mph - N/A   Scattered Clouds
9:00 PM 46 °F - 44 °F 90% 29.69 in 19 mi South 10.4 mph - - Rain Rain
9:20 PM 46.4 °F 41.5 °F 44.6 °F 93% 29.65 in 6.2 mi South 10.4 mph - N/A Rain Light Rain
9:50 PM 48.2 °F - 46.4 °F 93% 29.62 in 5.6 mi SW 12.7 mph - N/A Rain Light Rain
10:00 PM 47 °F - 46 °F 96% 29.62 in 5 mi SW 13.8 mph - - Rain Light Drizzle
10:20 PM 48.2 °F - 46.4 °F 93% 29.59 in 3.1 mi WSW 15.0 mph - N/A Rain Light Rain
10:50 PM 48.2 °F - 46.4 °F 93% 29.56 in 2.5 mi WSW 16.1 mph - N/A Rain Light Rain
11:00 PM 48 °F - 46 °F 91% 29.57 in 3 mi WSW 18.4 mph - - Rain Rain Showers
11:20 PM 48.2 °F - 46.4 °F 93% 29.53 in 6.2 mi WSW 13.8 mph - N/A Rain Light Rain
11:50 PM 48.2 °F - 46.4 °F 93% 29.50 in 6.2 mi WSW 16.1 mph - N/A Rain Light Rain